Location: Longueuil
(45.5369°N, 73.5107°W)
Time: 22:07:13
(UTC-05:00)

ISS - Pass Details

Date: 02 December 2024
Orbit: 411 x 421 km, 51.6° (Epoch: 03 December)

Event Time Altitude Azimuth Distance (km) Brightness Sun altitude
Rises 17:56:17 0° 291° (WNW) 2,373 1.0 -17.7°
Reaches altitude 10° 17:58:38 10° 277° (W) 1,505 0.1 -18.1°
Maximum altitude 18:01:24 24° 222° (SW) 926 -1.4 -18.6°
Drops below altitude 10° 18:04:09 10° 167° (SSE) 1,496 -1.0 -19.0°
Enters shadow 18:04:54 - 161° (SSE) 1,753 -0.7 -19.2°
